www.pogodaiklimat.ru

Погода и климат >> Архив погоды >> Канада >> Eureka


ПОГОДА в Eureka

  • Прогноз погоды в Eureka
  • Монитор погоды в Eureka
  • Климат города

АРХИВ ПОГОДЫ в Eureka

Время (UTC), дата Ветер
(напр.,м/с)
 
Видим.   Явления Облачность Т
(С)
Тd
(С)
f
(%)
Тe
(С)
Тes
(С)
Комфортность P
(гПа)
Po
(гПа)
Тmin
(С)
Tmax
(С)
R
(мм)
R24
(мм)
S
(см)
18 20.06 З 4 24 км 10/1 600 м
[Sc Ac As]
+3.3 +0.2 80 -1 -0 1014.0 1012.6 +4.0
21 20.06 З 5 24 км 9/0
[]
+4.0 +0.6 78 -1 +1 1014.3 1012.9
00 21.06 З 5 24 км 3/0
[Ac As]
+5.8 +0.4 68 +2 +3 1014.3 1012.9 +1.3 +7.1
03 21.06 С 4 24 км 4/0
[]
+8.1 +0.1 57 +5 +6 1014.4 1013.0
06 21.06 З 4 24 км 5/0
[Ac As Ci fib]
+5.3 -0.9 64 +2 +2 1014.4 1013.0 13
09 21.06 З 3 24 км 6/0 2000 м
[]
+6.3 -0.1 64 +3 +5 1014.2 1012.8
12 21.06 З 4 24 км 9/3 1000 м
[Sc Ac As Ci fib]
+6.7 -1.5 56 +3 +4 1014.1 1012.8
15 21.06 З 5 24 км 9/9 600 м
[]
+6.0 -0.6 63 +2 +3 1014.0 1012.7
18 21.06 З 7 24 км 8/1 600 м
[Sc Ac As]
+5.3 +0.6 72 0 +1 1013.8 1012.4 +8.8
21 21.06 З 8 24 км ясно +4.9 +0.1 71 -1 0 1013.2 1011.9
00 22.06 З 8 24 км ясно +5.6 +0.6 70 0 +1 1013.3 1012.0 +4.3 +8.8
03 22.06 З 9 24 км ясно +3.8 -0.4 74 -3 -2 1013.2 1011.8
06 22.06 З 8 24 км 1/0 2000 м
[Ac As Ci fib]
+3.1 -0.7 76 -3 -3 1013.4 1012.0 11
09 22.06 З 5 24 км ясно +4.1 -0.2 74 -1 0 1013.3 1011.9
12 22.06 З 6 24 км ясно +5.3 -0.4 67 +1 +2 1013.4 1012.0
15 22.06 З 6 24 км ясно +6.7 +0.4 64 +3 +5 1013.0 1011.6
18 22.06 З 6 24 км ясно +8.1 +1.3 62 +4 +7 1012.5 1011.2 +8.1
21 22.06 З 6 24 км ясно +9.0 +1.5 59 +6 +8 1011.9 1010.6
00 23.06 З 6 24 км 1/0 2000 м
[Ac As Ci fib]
+8.6 +0.8 58 +5 +6 1011.5 1010.2 +2.5 +9.2
03 23.06 СЗ 3 24 км 9/0
[]
+9.1 +2.9 65 +7 +8 1010.5 1009.2
06 23.06 З 2 24 км 9/0
[Ac As]
+7.1 -0.2 60 +6 +6 1009.6 1008.3 7
09 23.06 ЮВ 4 24 км 4/0
[]
+8.3 +3.3 71 +6 +7 1008.6 1007.3
12 23.06 ЮВ 4 24 км 1/0
[Ac As]
+8.0 +2.8 70 +5 +7 1008.2 1006.9
15 23.06 ЮВ 5 24 км ясно +8.5 +2.9 68 +5 +8 1007.1 1005.8
18 23.06 Ю 8 24 км ясно +8.7 +2.2 64 +5 +6 1006.8 1005.5 +9.0
21 23.06 Ю 8 24 км 1/1 600 м
[]
+8.3 +1.9 64 +4 +5 1005.8 1004.5
00 24.06 Ю 9 24 км 8/8 1500 м
[Sc]
+6.7 +1.4 69 +2 +2 1005.8 1004.5 +6.7 +9.1
03 24.06 Ю 8 24 км 3/3 1500 м
[]
+5.9 +0.9 70 +1 +1 1005.6 1004.3
06 24.06 Ю 8 24 км 5/1 600 м
[Cu Sc Ac As Ci sp]
+4.5 +0.7 76 -1 -1 1005.8 1004.5 231
09 24.06 ЮВ 6 24 км 5/5 600 м
[]
+3.9 -0.6 72 -1 -1 1006.8 1005.5
12 24.06 Ю 5 24 км 9/1 600 м
[Cu Sc Ac As Ci sp]
+4.0 -0.4 73 -1 0 1007.4 1006.1
15 24.06 Ю 5 24 км 10/10 600 м
[]
+3.2 -0.2 78 -2 -2 1007.7 1006.4
18 24.06 Ю 10 24 км 5/1 600 м
[Sc Ac As]
+4.8 +0.3 73 -2 -2 1007.5 1006.2 +5.1
21 24.06 Ю 10 24 км 3/3 600 м
[]
+5.6 +0.6 70 -0 -0 1007.7 1006.4
00 25.06 ЮВ 6 24 км 9/4 300 м
[Cu Sc Ac As Ci fib]
+4.7 -0.3 70 -0 0 1007.3 1006.0 +3.0 +6.0
03 25.06 ЮВ 9 24 км 10/10 300 м
[]
+3.0 -0.9 76 -4 -4 1007.0 1005.7
06 25.06 ЮВ 7 24 км 9/1 300 м
[Sc Ac As Cs]
+2.2 -1.2 78 -4 -4 1005.2 1003.9 191
09 25.06 ЮВ 7 24 км 9/9 300 м
[]
+2.1 -1.1 79 -4 -4 1005.0 1003.7
12 25.06 ЮВ 8 24 км 10/5 200 м
[Cu Sc Ac As]
+1.8 -0.4 85 -5 -5 1004.8 1003.5
15 25.06 Ю 10 24 км 8/8 200 м
[]
+3.0 0.0 81 -4 -4 1004.3 1003.0
18 25.06 Ю 13 24 км 10/8 300 м
[Sc Ac lent Ci sp]
+3.3 +0.8 84 -5 -5 1003.0 1001.7 +4.1
21 25.06 Ю 15 24 км 9/9 300 м
[]
+3.1 +0.8 85 -5 -5 1002.0 1000.7
00 26.06 Ю 13 24 км {ливн. осадки} 10/5 300 м
[Sc As op]
+3.2 +0.8 84 -5 -5 1000.6 999.3 +1.6 +4.1 0.2
03 26.06 Ю 13 24 км 10/10 100 м
[]
+2.2 +0.7 90 -6 -6 1000.1 998.8
06 26.06 Ю 7 24 км {ливн. осадки} 10/6 300 м
[Sc Ac As]
+2.3 +0.8 90 -4 -4 1001.4 1000.1 1 13
09 26.06 ЮВ 3 24 км 9/9 1500 м
[]
+3.7 +1.2 84 -0 -0 1004.6 1003.3
12 26.06 ЮВ 4 24 км 9/3 300 м
[Sc Ac As]
+2.8 +0.7 86 -2 -1 1006.0 1004.7
15 26.06 Ю 9 24 км 10/10 300 м
[]
+3.6 +0.9 82 -3 -3 1006.1 1004.8
18 26.06 Ю 8 24 км 9/1 300 м
[Sc Ac As Ci sp]
+3.4 +0.8 83 -3 -2 1006.2 1004.9 +3.8
21 26.06 Ю 7 24 км 8/8 600 м
[]
+4.6 +0.5 75 -1 -0 1006.7 1005.4
00 27.06 Ю 3 24 км 6/1 600 м
[Cu hum Ac lent Cc]
+6.2 -2.1 55 +4 +6 1006.9 1005.6 +2.0 +6.2
03 27.06 З 5 24 км 9/9 1000 м
[]
+4.2 -2.5 62 -0 0 1007.0 1005.7
06 27.06 Ю 2 24 км 8/0
[Ac As Ci fib]
+2.3 -2.5 71 0 +1 1007.0 1005.7 201
09 27.06 З 3 24 км 9/9 1500 м
[]
+2.5 -2.9 68 -1 -1 1007.1 1005.8
12 27.06 Ю 3 24 км 9/5 1500 м
[Sc Ac As]
+4.0 -4.9 52 +1 +2 1006.7 1005.4
15 27.06 ЮЗ 5 24 км 10/10 1000 м
[]
+4.8 -4.3 52 +1 +1 1006.0 1004.7

 

Местоположение метеостанции Eureka (Канада): широта 79.98 долгота -85.93 высота над уровнем моря 10 м.

В архиве по умолчанию представлена погода в Eureka за последнюю неделю. Архивные данные за месяц целиком и за предыдущие месяцы, начиная с января 2011 года, Вы можете получить, выбрав интересующий диапазон дат из раскрывающегося списка и нажав кнопку "Ввод!".

Внимание! Время в таблицах - всемирное. Для получения местного времени необходимо прибавить поправку, которая в Eureka равна -6 ч.

Смотрите также архив погоды в соседних городах и на ближайших метеорологических станциях:

Погода в Eureka Climate (Канада) (1 км)
Погода в Chris Hadfield (Канада) (343 км)
Погода в Isachsen (aut) (Канада) (382 км)
Погода в Mittarfik Qaanaaq (Гренландия) (452 км)
Погода в Kitsissut (Гренландия) (471 км)
Погода в Alert Climate (Канада) (483 км)
Погода в Resolute Cs (Канада) (623 км)
Погода в Resolute Airport (Канада) (623 км)
Погода в Arctic Bay (Канада) (777 км)
Погода в Pond Inlet Airport (Канада) (834 км)

Пояснения к столбцам:

Ветер - указаны скорость ветра в м/с - средняя за 10 мин, порывы в срок и между сроками (в фигурных скобках) и направление, откуда дует ветер: С - северный, СВ - северо-восточный, В - восточный, ЮВ - юго-восточный, Ю - южный, ЮЗ - юго-западный, З - западный, СЗ - северо-западный.
Видимость - горизонтальная дальность видимости в метрах или километрах. При видимости от 1 до 10 км при отсутствии осадков обычно наблюдается дымка, при ухудшении видимости до 1 км и менее - туман. В сухую погоду видимость может ухудшаться дымом, пылью или мглою.
Явления - указаны атмосферные явления, наблюдавшиеся в срок или в последний час перед сроком; фигурными скобками обозначены явления, наблюдавшиеся между сроками (за 1-3 часа до срока); квадратными скобками обозначены град или гололедные отложения с указанием их диаметра в мм.
Облачность - указаны через наклонную черту общая и нижняя облачность в баллах и высота нижней границы облаков в метрах; квадратными скобками обозначены формы облаков: Ci - перистые, Cs - перисто-слоистые, Cc - перисто-кучевые, Ac - высококучевые, As - высокослоистые, Sc - слоисто-кучевые, Ns - слоисто-дождевые, Cu - кучевые, Cb - кучево-дождевые. Подробнее классификацию облаков см. в Атласе облаков (PDF).
T - Температура воздуха - температура, измеренная на высоте 2 м над землей.
Td - Температура точки росы - температура, при понижении до которой содержащийся в воздухе водяной пар достигнет насыщения.
f - Относительная влажность воздуха - влажноcть воздуха, измеренная на высоте 2 м над землей.
Te - Эффективная температура - температура, которую ощущает одетый по сезону человек в тени. Характеристика душности погоды. При расчете учитывается влияние влажности воздуха и скорости ветра на теплоощущения человека.
Tes - Эффективная температура на солнце - температура, которую ощущает человек, с поправкой на солнечный нагрев. Характеристика знойности погоды. Зависит от высоты солнца над горизонтом, облачности и скорости ветра. Ночью, в пасмурную погоду, а также при ветре 12 м/с и более поправка равна нулю.
P - Атмосферное давление - приведенное к уровню моря атмосферное давление.
Po - Атмосферное давление - измеренное на уровне метеостанции атмосферное давление.
Tmin - Минимальная температура - минимум температуры воздуха на высоте 2 м над землей.
Tmax - Максимальная температура - максимум температуры воздуха на высоте 2 м над землей.
R - Количество осадков - Количество выпавших осадков за период времени, мм. При наведении курсора мыши на число - период времени, за который выпало указанное количество осадков.
R24 - Количество осадков - Количество выпавших осадков за 24 часа, мм.
S - Снежный покров - Высота снежного покрова, см. При наведении курсора мыши на число - состояние снежного покрова и степень покрытия местности в баллах.